This demonstration page uses our WeatherBlox Daily Observations layout. Learn more.

39.92423, -83.80882

Hourly Observations for May 13, 2017

Temp ( °F °C ) Dew Point ( °F °C ) Humidity (%) Winds ( mph kmh ) Pressure ( in mb ) Visibility ( mi km ) Precip ( " mm )
12:56 am 00:56 Clear 48 8.9 44 6.7 86 86 Calm 29.9 1013 10 16.0934 0 0
1:56 am 01:56 Clear 47 8.3 44 6.7 90 90 N 3 6 29.89 1012 10 16.0934 0 0
2:56 am 02:56 Clear 46 7.8 44 6.7 93 93 NNW 5 7 29.89 1012 10 16.0934 0 0
3:56 am 03:56 Clear 44 6.7 42 5.6 93 93 NNW 3 6 29.89 1012 8 12.87472 0 0
4:56 am 04:56 Clear 44 6.7 43 6.1 96 96 Calm 29.89 1012 7 11.26538 0 0
5:56 am 05:56 Clear with Mist and Fog 42 5.6 42 5.6 100 100 Calm 29.9 1012 5 8.0467 0 0
6:19 am 06:19 Clear with Mist and Fog 43 6 41 5 93 93 NW 3 6 29.94 1014 2.5 4.02335 0 0
6:28 am 06:28 Sunny with Mist and Fog 43 6 41 5 93 93 Calm 29.94 1014 4 6.43736 0 0
6:56 am 06:56 Sunny with Mist and Fog 43 6.1 42 5.6 97 97 Calm 29.92 1013 4 6.43736 0 0
7:56 am 07:56 Sunny 50 10 46 7.8 86 86 Calm 29.92 1013 10 16.0934 0 0
8:56 am 08:56 Sunny 55 12.8 47 8.3 74 74 ENE 5 7 29.93 1013 10 16.0934 0 0
9:56 am 09:56 Sunny 60 15.6 47 8.3 62 62 Calm 29.93 1014 10 16.0934 0 0
10:56 am 10:56 Sunny 63 17.2 46 7.8 54 54 Calm 29.94 1014 10 16.0934 0 0
11:56 am 11:56 Sunny 65 18.3 45 7.2 49 49 NW 6 9 29.93 1014 10 16.0934 0 0
12:56 pm 12:56 Sunny 67 19.4 46 7.8 47 47 NW 8 13 29.92 1013 10 16.0934 0 0
1:56 pm 13:56 Mostly Cloudy 69 20.6 47 8.3 45 45 Calm 29.91 1013 10 16.0934 0 0
2:56 pm 14:56 Partly Cloudy 68 20 47 8.3 47 47 NW 9 15 29.9 1012 10 16.0934 0 0
3:56 pm 15:56 Mostly Sunny 70 21.1 47 8.3 44 44 WNW 9 15 29.88 1012 10 16.0934 0 0
4:56 pm 16:56 Sunny 71 21.7 47 8.3 42 42 W 10 17 29.86 1011 10 16.0934 0 0
5:56 pm 17:56 Mostly Sunny 72 22.2 47 8.3 41 41 W 13 20 29.85 1011 10 16.0934 0 0
6:56 pm 18:56 Mostly Sunny 71 21.7 47 8.3 42 42 W 7 11 29.85 1011 10 16.0934 0 0
7:56 pm 19:56 Mostly Sunny 68 20 46 7.8 45 45 W 9 15 29.84 1011 10 16.0934 0 0
8:56 pm 20:56 Clear 62 16.7 44 6.7 52 52 W 7 11 29.85 1011 10 16.0934 0 0
9:56 pm 21:56 Clear 60 15.6 43 6.1 53 53 W 5 7 29.85 1011 10 16.0934 0 0
10:56 pm 22:56 Clear 58 14.4 45 7.2 62 62 SSW 6 9 29.85 1011 10 16.0934 0 0
11:56 pm 23:56 Mostly Cloudy 58 14.4 46 7.8 65 65 SW 8 13 29.84 1010 10 16.0934 0 0

Powered by AerisWeather